Cork, Ireland

11:55 PM IST on May 25, 2017 (GMT +0100)
Cork

Weather History for EICK - March, 2013

Change the Weather History Date:

Friday, March 8, 2013

  Actual Average Record
Temperature  
Mean Temperature 48 °F -  
Max Temperature 50 °F 50 °F 55 °F (2006)
Min Temperature 46 °F 39 °F 32 °F (1999)
Degree Days  
Heating Degree Days 17    
Moisture  
Dew Point 48 °F    
Average Humidity 100    
Maximum Humidity 100    
Minimum Humidity 93    
Precipitation  
Precipitation 0.04 in 0.12 in - ()
Sea Level Pressure  
Sea Level Pressure 29.22 in    
Wind  
Wind Speed 13 mph ()    
Max Wind Speed 20 mph    
Max Gust Speed -    
Visibility 2.5 miles    
Events Fog , Rain    
Averages and records for this station are not official NWS values.
T = Trace of Precipitation, MM = Missing Value Source: Averaged Metar Reports

Daily Weather History Graph

Daily Weather History Graph

Search for Another Location

Airport or City:

Trip Planner

Search our weather history database for the weather conditions in past years. The results will help you decide how hot, cold, wet, or windy it might be!

Date:

Astronomy

Mar. 08, 2013 Rise Set
Actual Time 7:03 AM GMT 6:26 PM GMT
Civil Twilight 6:30 AM GMT 7:00 PM GMT
Nautical Twilight 5:51 AM GMT 7:39 PM GMT
Astronomical Twilight 5:11 AM GMT 8:18 PM GMT
Moon 5:00 AM GMT (3/8) 2:47 PM GMT (3/8)
Length of Visible Light 12h 29m
Length of Day
11h 22m
Waning Crescent, 13% of the Moon is Illuminated
Mar 8
Waning Crescent
Mar 11
New
Mar 19
First Quarter
Mar 27
Full
Apr 3
Last Quarter

Hourly Weather History & Observations

Time (GMT) Temp. Windchill Dew Point Humidity Pressure Visibility Wind Dir Wind Speed Gust Speed Precip Events Conditions
12:00 AM 48 °F - 48 °F 100% 29.13 in 0 mi SE 15.7 mph - - Fog Partial Fog
12:00 AM 48.2 °F - 48.2 °F 100% 29.12 in 0.4 mi SE 15.0 mph - N/A Fog Fog
12:30 AM 48.2 °F - 48.2 °F 100% 29.12 in 0.5 mi SE 16.1 mph - N/A Fog Fog
1:00 AM 48.2 °F - 48.2 °F 100% 29.12 in 1.4 mi SE 16.1 mph - N/A Rain Light Rain
1:30 AM 48.2 °F - 48.2 °F 100% 29.12 in 1.6 mi SE 16.1 mph - N/A Rain Light Rain
2:00 AM 48.2 °F - 48.2 °F 100% 29.12 in 1.6 mi SE 17.3 mph - N/A Rain Light Rain
2:30 AM 48.2 °F - 48.2 °F 100% 29.12 in 1.9 mi SE 18.4 mph - N/A   Overcast
3:00 AM 48.2 °F - 48.2 °F 100% 29.12 in 2.5 mi SE 17.3 mph - N/A   Overcast
3:30 AM 46.4 °F 39.8 °F 46.4 °F 100% 29.09 in 3.7 mi SE 16.1 mph - N/A   Mostly Cloudy
4:00 AM 46.4 °F 39.5 °F 46.4 °F 100% 29.09 in 2.5 mi ESE 17.3 mph - N/A Rain Light Rain
4:30 AM 46.4 °F 39.0 °F 46.4 °F 100% 29.09 in 2.5 mi ESE 19.6 mph - N/A Rain Light Rain
5:00 AM 46.4 °F 39.8 °F 46.4 °F 100% 29.09 in 1.9 mi ESE 16.1 mph - N/A Rain Light Rain
5:30 AM 46.4 °F 40.4 °F 46.4 °F 100% 29.09 in 0.5 mi SE 13.8 mph - N/A Fog , Rain Light Rain
6:00 AM 47 °F - 47 °F 100% 29.13 in 0 mi SSE 13.4 mph - - Rain Light Rain
6:00 AM 48.2 °F - 48.2 °F 100% 29.12 in 0.4 mi SSE 12.7 mph - N/A Fog , Rain Light Rain
6:30 AM 48.2 °F - 48.2 °F 100% 29.12 in 0.4 mi South 8.1 mph - N/A Fog Fog
7:00 AM 48.2 °F - 48.2 °F 100% 29.12 in 0.3 mi South 6.9 mph - N/A Fog Fog
7:30 AM 48.2 °F - 48.2 °F 100% 29.15 in 0.1 mi South 8.1 mph - N/A Fog Fog
8:00 AM 48.2 °F - 48.2 °F 100% 29.15 in 0.2 mi South 10.4 mph - N/A Fog Fog
8:30 AM 48.2 °F - 48.2 °F 100% 29.18 in 0.2 mi South 11.5 mph - N/A Fog Fog
9:00 AM 48.2 °F - 48.2 °F 100% 29.18 in 0.7 mi South 10.4 mph - N/A Rain Light Rain
9:30 AM 48.2 °F - 48.2 °F 100% 29.18 in 1.4 mi South 13.8 mph - N/A Rain Light Rain
10:00 AM 50.0 °F - 50.0 °F 100% 29.21 in 3.1 mi South 13.8 mph - N/A Rain Light Rain
10:30 AM 50.0 °F - 50.0 °F 100% 29.21 in 3.1 mi SSW 13.8 mph - N/A   Overcast
11:00 AM 50.0 °F - 50.0 °F 100% 29.24 in 0.7 mi South 15.0 mph - N/A   Overcast
11:30 AM 50.0 °F - 50.0 °F 100% 29.24 in 3.7 mi South 12.7 mph - N/A   Light Drizzle
12:00 PM 49 °F - 49 °F 100% 29.28 in 5 mi South 13.4 mph - - Rain Light Rain
12:00 PM 50.0 °F - 50.0 °F 100% 29.27 in 5.0 mi South 12.7 mph - N/A   Mostly Cloudy
12:30 PM 50.0 °F - 50.0 °F 100% 29.27 in 5.0 mi South 12.7 mph - N/A   Mostly Cloudy
1:00 PM 50.0 °F - 50.0 °F 100% 29.27 in 5.6 mi South 13.8 mph - N/A   Mostly Cloudy
1:30 PM 50.0 °F - 50.0 °F 100% 29.30 in 6.2 mi South 12.7 mph - N/A   Mostly Cloudy
2:00 PM 50.0 °F - 50.0 °F 100% 29.30 in 6.2 mi South 13.8 mph - N/A   Mostly Cloudy
2:30 PM 50.0 °F - 50.0 °F 100% 29.30 in 6.2 mi South 12.7 mph - N/A   Mostly Cloudy
3:00 PM 50.0 °F - 50.0 °F 100% 29.30 in 6.2 mi South 10.4 mph - N/A   Mostly Cloudy
3:30 PM 50.0 °F - 50.0 °F 100% 29.30 in 6.2 mi SSE 11.5 mph - N/A   Mostly Cloudy
4:00 PM 50.0 °F - 48.2 °F 94% 29.30 in 6.2 mi SSE 11.5 mph - N/A   Mostly Cloudy
4:30 PM 48.2 °F - 48.2 °F 100% 29.30 in 6.2 mi SSE 13.8 mph - N/A   Mostly Cloudy
5:00 PM 48.2 °F - 48.2 °F 100% 29.33 in 6.2 mi SSE 11.5 mph - N/A   Mostly Cloudy
5:30 PM 48.2 °F - 46.4 °F 93% 29.33 in 6.2 mi SE 9.2 mph - N/A   Partly Cloudy
6:00 PM 47 °F - 47 °F 100% 29.34 in 4 mi ESE 11.2 mph - -   Mist
6:00 PM 48.2 °F - 46.4 °F 93% 29.33 in 3.7 mi ESE 11.5 mph - N/A   Mostly Cloudy
6:30 PM 46.4 °F 40.4 °F 46.4 °F 100% 29.33 in 0.5 mi ESE 13.8 mph - N/A Fog Fog
7:00 PM 46.4 °F 40.7 °F 46.4 °F 100% 29.33 in 0.4 mi ESE 12.7 mph - N/A Fog Fog
7:30 PM 46.4 °F 40.4 °F 46.4 °F 100% 29.33 in 0.2 mi East 13.8 mph - N/A Fog Fog
8:00 PM 46.4 °F 40.1 °F 46.4 °F 100% 29.30 in 0.2 mi East 15.0 mph - N/A Fog Fog
8:30 PM 48.2 °F - 48.2 °F 100% 29.30 in 1.1 mi ESE 17.3 mph - N/A Rain Light Rain
9:00 PM 48.2 °F - 48.2 °F 100% 29.30 in 0.6 mi ESE 15.0 mph - N/A Fog , Rain Light Rain
9:30 PM 48.2 °F - 48.2 °F 100% 29.30 in 0.4 mi East 16.1 mph - N/A Fog Fog
10:00 PM 48.2 °F - 48.2 °F 100% 29.30 in 0.4 mi East 17.3 mph - N/A Fog Fog
10:30 PM 46.4 °F 39.2 °F 46.4 °F 100% 29.30 in 1.9 mi ESE 18.4 mph - N/A Rain Light Rain
11:00 PM 46.4 °F 39.5 °F 46.4 °F 100% 29.30 in 1.0 mi ESE 17.3 mph - N/A Rain Light Rain
11:30 PM 46.4 °F 39.0 °F 46.4 °F 100% 29.27 in 5.0 mi East 19.6 mph - N/A   Mostly Cloudy